Galena, AK

2:05 AM AKDT on October 23, 2017 (GMT -0800)
Pitka

Weather History for PAGA - November, 2013

Change the Weather History Date:

Saturday, November 23, 2013

  Actual Average Record
Temperature  
Mean Temperature 8 °F -  
Max Temperature 12 °F 5 °F 44 °F (1952)
Min Temperature 3 °F -5 °F -42 °F (1974)
Degree Days  
Heating Degree Days 58    
Moisture  
Dew Point 6 °F    
Average Humidity 87    
Maximum Humidity 96    
Minimum Humidity 84    
Precipitation  
Precipitation 0.00 in - - ()
Sea Level Pressure  
Sea Level Pressure 29.66 in    
Wind  
Wind Speed 6 mph (SE)    
Max Wind Speed 15 mph    
Max Gust Speed -    
Visibility 6 miles    
Events Snow    
Averages and records for this station are not official NWS values.
T = Trace of Precipitation, MM = Missing Value Source: NWS Daily Summary

Daily Weather History Graph

Daily Weather History Graph

Search for Another Location

Airport or City:

Trip Planner

Search our weather history database for the weather conditions in past years. The results will help you decide how hot, cold, wet, or windy it might be!

Date:

Astronomy

Nov. 23, 2013 Rise Set
Actual Time 10:30 AM AKST 3:57 PM AKST
Civil Twilight 9:22 AM AKST 5:05 PM AKST
Nautical Twilight 8:17 AM AKST 6:10 PM AKST
Astronomical Twilight 7:18 AM AKST 7:09 PM AKST
Moon 10:42 PM AKST 1:54 PM AKST
Length of Visible Light 7h 43m
Length of Day
5h 26m
Waning Gibbous, 68% of the Moon is Illuminated
Nov 23
Waning Gibbous
Nov 25
Last Quarter
Dec 2
New
Dec 9
First Quarter
Dec 17
Full

Hourly Weather History & Observations

Time (AKST) Temp. Windchill Dew Point Humidity Pressure Visibility Wind Dir Wind Speed Gust Speed Precip Events Conditions
12:58 AM 8.1 °F -6.2 °F 5.0 °F 87% 29.43 in 10.0 mi ESE 10.4 mph - N/A   Overcast
1:58 AM 9.0 °F -5.1 °F 5.0 °F 84% 29.45 in 10.0 mi ESE 10.4 mph - N/A   Mostly Cloudy
2:58 AM 7.0 °F -7.5 °F 3.9 °F 87% 29.45 in 10.0 mi SE 10.4 mph - N/A   Clear
3:58 AM 7.0 °F -5.7 °F 3.9 °F 87% 29.47 in 10.0 mi East 8.1 mph - N/A   Mostly Cloudy
4:58 AM 6.1 °F -2.8 °F 3.0 °F 87% 29.49 in 10.0 mi ESE 4.6 mph - N/A   Mostly Cloudy
5:58 AM 5.0 °F -2.1 °F 1.9 °F 87% 29.51 in 10.0 mi East 3.5 mph - N/A   Mostly Cloudy
6:58 AM 6.1 °F -0.9 °F 3.0 °F 87% 29.51 in 10.0 mi East 3.5 mph - N/A   Overcast
7:58 AM 3.0 °F - 1.0 °F 91% 29.53 in 10.0 mi Calm Calm - N/A   Clear
8:58 AM 3.0 °F -6.4 °F 1.0 °F 91% 29.54 in 10.0 mi East 4.6 mph - N/A   Partly Cloudy
9:58 AM 3.0 °F -9.3 °F -0.0 °F 87% 29.55 in 10.0 mi East 6.9 mph - N/A   Mostly Cloudy
10:58 AM 5.0 °F - 1.9 °F 87% 29.58 in 10.0 mi Calm Calm - N/A   Overcast
11:58 AM 5.0 °F - 1.9 °F 87% 29.60 in 10.0 mi Calm Calm - N/A   Overcast
12:11 PM 6.8 °F - 3.2 °F 85% 29.57 in 2.5 mi Calm Calm - N/A Snow Light Snow
12:19 PM 6.8 °F - 3.2 °F 85% 29.57 in 3.0 mi Calm Calm - N/A Snow Light Snow
12:27 PM 6.8 °F - 3.2 °F 85% 29.57 in 2.5 mi Calm Calm - N/A Snow Light Snow
12:35 PM 6.8 °F - 3.2 °F 85% 29.57 in 1.8 mi Calm Calm - N/A Snow Light Snow
12:58 PM 9.0 °F 0.6 °F 8.1 °F 96% 29.60 in 1.2 mi East 4.6 mph - N/A Snow Light Snow
1:03 PM 10.4 °F 4.0 °F 8.6 °F 92% 29.58 in 1.0 mi East 3.5 mph - N/A Snow Light Snow
1:24 PM 12.2 °F -3.1 °F 8.6 °F 85% 29.58 in 1.5 mi ESE 13.8 mph - N/A Snow Light Snow
1:29 PM 12.2 °F -1.8 °F 8.6 °F 85% 29.58 in 3.0 mi ESE 11.5 mph - N/A Snow Light Snow
1:40 PM 12.2 °F -2.5 °F 8.6 °F 85% 29.58 in 2.0 mi ESE 12.7 mph - N/A Snow Light Snow
1:52 PM 12.2 °F -1.8 °F 8.6 °F 85% 29.59 in 4.0 mi East 11.5 mph - N/A Snow Light Snow
1:58 PM 12.9 °F -0.2 °F 9.0 °F 84% 29.62 in 7.0 mi East 10.4 mph - N/A Snow Light Snow
2:08 PM 12.2 °F -1.0 °F 8.6 °F 85% 29.60 in 9.0 mi East 10.4 mph - N/A Snow Light Snow
2:23 PM 12.2 °F -1.0 °F 8.6 °F 85% 29.60 in 5.0 mi East 10.4 mph - N/A Snow Light Snow
2:58 PM 12.0 °F 4.1 °F 9.0 °F 88% 29.63 in 8.0 mi SSE 4.6 mph - N/A Snow Light Snow
3:03 PM 12.2 °F 4.3 °F 8.6 °F 85% 29.61 in 8.0 mi SSE 4.6 mph - N/A Snow Light Snow
3:31 PM 10.4 °F 0.8 °F 6.8 °F 85% 29.62 in 9.0 mi SSE 5.8 mph - N/A Snow Light Snow
3:58 PM 10.0 °F - 7.0 °F 87% 29.65 in 9.0 mi Calm Calm - N/A Snow Light Snow
4:33 PM 10.4 °F 4.0 °F 8.6 °F 92% 29.64 in 4.0 mi East 3.5 mph - N/A Snow Light Snow
4:39 PM 10.4 °F 4.0 °F 8.6 °F 92% 29.65 in 2.5 mi East 3.5 mph - N/A Snow Light Snow
4:43 PM 10.4 °F 4.0 °F 8.6 °F 92% 29.65 in 3.0 mi ESE 3.5 mph - N/A Snow Light Snow
4:58 PM 10.9 °F 0.2 °F 8.1 °F 88% 29.68 in 9.0 mi SE 6.9 mph - N/A Snow Light Snow
5:03 PM 10.4 °F -0.4 °F 8.6 °F 92% 29.66 in 9.0 mi SE 6.9 mph - N/A Snow Light Snow
5:26 PM 12.2 °F -3.7 °F 8.6 °F 85% 29.67 in 10.0 mi SE 15.0 mph - N/A   Overcast
5:58 PM 10.9 °F 1.4 °F 8.1 °F 88% 29.71 in 10.0 mi SE 5.8 mph - N/A   Overcast
6:58 PM 10.0 °F -1.9 °F 7.0 °F 87% 29.75 in 10.0 mi SE 8.1 mph - N/A   Overcast
7:58 PM 10.0 °F -1.9 °F 7.0 °F 87% 29.78 in 10.0 mi SSE 8.1 mph - N/A   Overcast
8:28 PM 10.4 °F 2.2 °F 6.8 °F 85% 29.78 in 2.5 mi SW 4.6 mph - N/A Snow Light Snow
8:40 PM 10.4 °F - 6.8 °F 85% 29.78 in 1.8 mi Calm Calm - N/A Snow Light Snow
8:51 PM 10.4 °F - 6.8 °F 85% 29.78 in 2.0 mi Calm Calm - N/A Snow Light Snow
8:58 PM 10.0 °F - 7.0 °F 87% 29.81 in 5.0 mi Calm Calm - N/A Snow Light Snow
9:07 PM 10.4 °F - 6.8 °F 85% 29.79 in 9.0 mi Calm Calm - N/A Snow Light Snow
9:58 PM 10.0 °F 3.6 °F 7.0 °F 87% 29.84 in 3.0 mi SSW 3.5 mph - N/A Snow Light Snow
10:07 PM 10.4 °F 0.8 °F 6.8 °F 85% 29.82 in 2.5 mi West 5.8 mph - N/A Snow Light Snow
10:11 PM 10.4 °F 0.8 °F 6.8 °F 85% 29.82 in 3.0 mi WSW 5.8 mph - N/A Snow Light Snow
10:16 PM 10.4 °F 0.8 °F 6.8 °F 85% 29.83 in 2.5 mi West 5.8 mph - N/A Snow Light Snow
10:24 PM 8.6 °F 2.0 °F 6.8 °F 92% 29.83 in 1.8 mi West 3.5 mph - N/A Snow Light Snow
10:28 PM 8.6 °F 2.0 °F 6.8 °F 92% 29.83 in 2.0 mi WSW 3.5 mph - N/A Snow Light Snow
10:32 PM 8.6 °F - 6.8 °F 92% 29.83 in 3.0 mi Calm Calm - N/A Snow Light Snow
10:58 PM 8.1 °F - 5.0 °F 87% 29.87 in 7.0 mi Calm Calm - N/A Snow Light Snow
11:56 PM 8.6 °F 0.1 °F 6.8 °F 92% 29.88 in 4.0 mi West 4.6 mph - N/A Snow Light Snow
11:58 PM 9.0 °F 0.6 °F 7.0 °F 92% 29.91 in 4.0 mi WNW 4.6 mph - N/A Snow Light Snow